[[{"header":{"parameterUnit":"m.s-1","parameterCategory":1,"la1":30.2991,"la2":30.254,"lo1":-89.0895,"lo2":-89.0444,"dy":0.0017,"dx":0.0017,"nx":28,"ny":28,"refTime":"2024-03-25T09:00:00:Z","depth":0,"parameterNumber":2,"parameterNumberName":"U-component_of_WINDS"},"data":[0,0,0,0,0,0,0,0,0,0,0,0,0,0,0,0,0,0,0,0,0,0,0,0,0,0,0,0,0,0,0,0,0,0,0,0,0,0,0,0,0,0,0,0,0,0,0,0,0,0,0,0,0,0,0,0,0,0,-6.3275,-6.3277,0,-6.3459,-6.3461,-6.3463,-6.3487,-6.3485,-6.3483,-6.3482,-6.3673,-6.3679,-6.3686,0,0,0,0,0,0,0,0,0,0,0,0,0,-6.2948,-6.2954,-6.3275,-6.3277,-6.328,-6.3459,-6.3461,-6.3464,-6.3487,-6.3485,-6.3483,-6.3481,-6.367,-6.3678,-6.3686,0,0,0,0,0,0,0,0,0,0,0,0,0,-6.3107,-6.2956,-6.3275,-6.3313,-6.3318,-6.3458,-6.3461,-6.3464,-6.3488,-6.3485,-6.3482,-6.348,-6.3668,-6.3677,-6.3687,-6.3803,0,0,-6.3718,-6.3723,0,0,0,0,0,0,0,0,-6.3098,-6.3119,-6.3305,-6.3311,-6.3317,-6.3447,-6.3416,-6.3578,-6.3488,-6.3423,-6.3482,-6.3479,-6.36,-6.3615,-6.3656,-6.3812,-6.382,-6.3719,-6.3725,-6.373,-6.3733,0,0,0,0,0,0,0,-6.3087,-6.3111,-6.3348,-6.3308,-6.3315,-6.3322,-6.3342,-6.3447,-6.3524,-6.3429,-6.3431,-6.3452,-6.3603,-6.3646,-6.366,-6.3823,-6.3719,-6.3728,-6.3734,-6.3738,-6.4084,-6.4087,0,0,0,0,0,0,-6.3068,-6.3102,-6.3342,-6.3353,-6.3198,-6.333,-6.3352,-6.3408,-6.3523,-6.3538,-6.3454,-6.3453,-6.363,-6.3649,-6.3667,-6.3809,-6.373,-6.3739,-6.3745,-6.4081,-6.4085,-6.4088,0,0,0,0,0,0,-6.3061,-6.3089,-6.3335,-6.3228,-6.326,-6.3339,-6.3401,-6.3413,-6.3456,-6.3543,-6.3557,-6.3484,-6.3629,-6.3653,-6.3769,-6.3816,-6.3744,-6.3753,-6.4077,-6.4082,-6.4086,-6.4094,0,0,0,0,0,0,-6.3052,-6.3087,-6.313,-6.3229,-6.3266,-6.3432,-6.3404,-6.3419,-6.3473,-6.3473,-6.3574,-6.3588,-6.3628,-6.3754,-6.3779,-6.3829,-6.3761,-6.4073,-6.4079,-6.4085,-6.409,-6.4099,-6.4106,0,0,0,0,0,-6.304,-6.3126,-6.3132,-6.3161,-6.3321,-6.3435,-6.3456,-6.3499,-6.3477,-6.3522,-6.3578,-6.3585,-6.3808,-6.3765,-6.3794,-6.3848,-6.407,-6.4078,-6.4084,-6.4087,-6.4097,-6.4106,0,0,0,0,0,0,-6.3031,-6.3139,-6.3148,-6.3268,-6.3342,-6.3438,-6.3496,-6.3509,-6.3591,-6.3587,-6.3639,-6.3662,-6.3775,-6.3824,-6.3775,-6.3966,-6.3937,-6.395,-6.3929,-6.394,-6.3948,-6.3932,-6.3769,0,0,0,0,0,-6.3043,-6.3124,-6.3216,-6.3313,-6.335,-6.3417,-6.3467,-6.3495,-6.3574,-6.3605,-6.3669,-6.3746,-6.3834,-6.389,-6.3976,-6.4099,-6.4121,-6.415,-6.4158,-6.4164,-6.4174,-6.4243,-6.4257,-6.4111,-6.4111,-6.4111,0,0,-6.3068,-6.3137,-6.3186,-6.3313,-6.3373,-6.3457,-6.3442,-6.3532,-6.3595,-6.3619,-6.3731,-6.3782,-6.3872,-6.3992,-6.4048,-6.4036,-6.422,-6.4173,-6.4177,-6.4184,-6.4252,-6.4265,-6.4277,-6.4116,-6.4115,-6.4114,0,0,-6.3156,-6.3218,-6.3305,-6.3366,-6.3458,-6.3502,-6.3524,-6.3619,-6.3653,-6.3767,-6.3787,-6.3864,-6.4014,-6.4076,-6.4128,-6.4244,-6.4254,-6.4271,-6.4311,-6.4377,-6.4389,-6.4399,-6.4439,-6.4453,-6.4281,-6.4281,-6.4281,0,-6.3176,-6.3302,-6.3348,-6.3438,-6.3493,-6.3519,-6.3608,-6.3666,-6.3781,-6.3819,-6.3805,-6.3993,-6.4056,-6.419,-6.4219,-6.4261,-6.4286,-6.4257,-6.4383,-6.4394,-6.4405,-6.4443,-6.4458,-6.4282,-6.4282,-6.4282,-6.4282,0,-6.3321,-6.3409,-6.3469,-6.3579,-6.3642,-6.3731,-6.3791,-6.385,-6.3873,-6.392,-6.4036,-6.4113,-6.4213,-6.4249,-6.4272,-6.4388,-6.4377,-6.4373,-6.4344,-6.4419,-6.4456,-6.4471,-6.4284,-6.4284,-6.4283,-6.4283,0,0,-6.3405,-6.3541,-6.3562,-6.3612,-6.3717,-6.3786,-6.3878,-6.3976,-6.4024,-6.4105,-6.4182,-6.431,-6.4306,-6.4365,-6.4397,-6.4456,-6.4541,-6.4444,-6.4447,-6.4458,-6.4672,-6.4672,-6.4689,-6.455,-6.4553,-6.4556,-6.4664,0,-6.3504,-6.3664,-6.371,-6.3846,-6.3928,-6.3956,-6.4036,-6.4109,-6.4156,-6.4234,-6.4287,-6.4375,-6.4365,-6.44,-6.446,-6.4518,-6.4584,-6.4511,-6.4622,-6.4626,-6.4595,-6.4709,-6.4709,-6.4807,-6.4679,-6.4681,-6.4683,0,-6.3639,-6.372,-6.3864,-6.3959,-6.3996,-6.4066,-6.416,-6.4234,-6.4319,-6.4349,-6.4416,-6.4443,-6.4541,-6.451,-6.4645,-6.4594,-6.4644,-6.4679,-6.4684,-6.4694,-6.4656,-6.4719,-6.484,-6.4853,-6.4707,-6.4705,-6.4703,0,-6.3682,-6.3829,-6.3934,-6.3977,-6.4091,-6.414,-6.419,-6.4272,-6.4329,-6.4413,-6.445,-6.4544,-6.4595,-6.4669,-6.4721,-6.4694,-6.4852,-6.4826,-6.488,-6.4878,-6.4909,-6.4905,-6.5037,-6.4945,-6.4945,-6.4945,-6.4944,0,-6.3786,-6.3872,-6.3955,-6.4019,-6.4118,-6.4171,-6.4268,-6.4319,-6.4393,-6.4469,-6.4501,-6.4571,-6.4638,-6.4718,-6.4761,-6.4866,-6.489,-6.4917,-6.4926,-6.4912,-6.4908,-6.4942,-6.4936,-6.4949,-6.4948,-6.4947,-6.4946,0,-6.3849,-6.3908,-6.4024,-6.4124,-6.4151,-6.4219,-6.4304,-6.4368,-6.4418,-6.4514,-6.4539,-6.4617,-6.4713,-6.4774,-6.4897,-6.4926,-6.5041,-6.505,-6.5011,-6.5015,-6.5065,-6.5058,-6.522,-6.5243,-6.5139,-6.514,-6.514,0,-6.3909,-6.3976,-6.4083,-6.4135,-6.4185,-6.427,-6.4328,-6.4385,-6.4444,-6.4547,-6.4599,-6.4698,-6.4779,-6.4932,-6.5,-6.5095,-6.5105,-6.5155,-6.5119,-6.5102,-6.5103,-6.5097,-6.5103,-6.516,-6.516,-6.5161,-6.5162,0,-6.4009,-6.4035,-6.4117,-6.421,-6.4278,-6.4354,-6.443,-6.4472,-6.4542,-6.4608,-6.4706,-6.4769,-6.4895,-6.4992,-6.5093,-6.5146,-6.5166,-6.5173,-6.519,-6.5175,-6.5149,-6.5161,-6.5024,-6.5168,-6.5168,-6.5167,-6.5167,-6.5167,-6.4071,-6.4132,-6.4216,-6.4307,-6.437,-6.4441,-6.4506,-6.4564,-6.4647,-6.4752,-6.4782,-6.4885,-6.4971,-6.5108,-6.5164,-6.5246,-6.524,-6.5265,-6.5271,-6.5275,-6.5275,-6.5138,-6.5266,-6.5265,-6.5265,-6.5265,-6.5265,0,-6.417,-6.4226,-6.4309,-6.4414,-6.4486,-6.4499,-6.4585,-6.4644,-6.4734,-6.4812,-6.4891,-6.5005,-6.51,-6.5177,-6.5276,-6.5327,-6.5338,-6.5351,-6.5346,-6.5358,-6.5276,-6.525,-6.534,-6.534,-6.534,-6.534,-6.5339,-6.5339,-6.423,-6.4333,-6.437,-6.4506,-6.4563,-6.4663,-6.471,-6.4776,-6.4839,-6.4964,-6.5043,-6.5093,-6.5171,-6.5276,-6.5364,-6.5385,-6.5418,-6.5428,-6.545,-6.5372,-6.5363,-6.5355,-6.5331,-6.5436,-6.5436,-6.5525,-6.5526,-6.5526]},{"header":{"parameterUnit":"m.s-1","parameterCategory":1,"la1":30.2991,"la2":30.254,"lo1":-89.0895,"lo2":-89.0444,"dy":0.0017,"dx":0.0017,"nx":28,"ny":28,"refTime":"2024-03-25T09:00:00:Z","depth":0,"parameterNumber":3,"parameterNumberName":"V-component_of_WINDS"},"data":[0,0,0,0,0,0,0,0,0,0,0,0,0,0,0,0,0,0,0,0,0,0,0,0,0,0,0,0,0,0,0,0,0,0,0,0,0,0,0,0,0,0,0,0,0,0,0,0,0,0,0,0,0,0,0,0,0,0,3.3306,3.3305,0,3.3261,3.326,3.326,3.3219,3.3218,3.3218,3.3217,3.3169,3.3168,3.3167,0,0,0,0,0,0,0,0,0,0,0,0,0,3.3357,3.3356,3.3306,3.3305,3.3305,3.3261,3.326,3.3259,3.3219,3.3218,3.3218,3.3217,3.3169,3.3168,3.3167,0,0,0,0,0,0,0,0,0,0,0,0,0,3.3326,3.3356,3.3306,3.3279,3.3276,3.3261,3.326,3.3259,3.3219,3.3218,3.3217,3.3217,3.317,3.3168,3.3167,3.3174,0,0,3.3163,3.3163,0,0,0,0,0,0,0,0,3.3327,3.3324,3.3284,3.3281,3.3278,3.3245,3.326,3.3231,3.3219,3.3241,3.3217,3.3216,3.3195,3.3191,3.3184,3.3172,3.317,3.3163,3.3162,3.3162,3.3162,0,0,0,0,0,0,0,3.333,3.3325,3.3288,3.3283,3.328,3.3269,3.3264,3.3254,3.3222,3.3239,3.3236,3.3231,3.3193,3.3186,3.3183,3.3169,3.3163,3.3162,3.3161,3.3161,3.3162,3.3162,0,0,0,0,0,0,3.3336,3.3327,3.3289,3.3286,3.3301,3.3269,3.3263,3.3256,3.3222,3.3216,3.3232,3.3229,3.3188,3.3184,3.3181,3.3188,3.3162,3.3161,3.316,3.3161,3.3162,3.3163,0,0,0,0,0,0,3.3337,3.3333,3.3291,3.3306,3.33,3.3269,3.3261,3.3255,3.3248,3.3217,3.3211,3.323,3.3187,3.3183,3.3177,3.3186,3.316,3.3159,3.316,3.3161,3.3162,3.3201,0,0,0,0,0,0,3.3339,3.3334,3.3336,3.3307,3.3299,3.3288,3.3262,3.3255,3.3246,3.3243,3.3214,3.3208,3.3186,3.3179,3.3175,3.3183,3.3158,3.3159,3.3161,3.3162,3.3199,3.3203,3.3207,0,0,0,0,0,3.3341,3.3348,3.3336,3.3332,3.3301,3.3288,3.3284,3.3259,3.3247,3.3249,3.323,3.3209,3.3185,3.3178,3.3174,3.3182,3.3158,3.316,3.3162,3.3197,3.3202,3.3207,0,0,0,0,0,0,3.3377,3.3343,3.333,3.3327,3.3311,3.3281,3.3283,3.3266,3.3252,3.3249,3.3218,3.3212,3.321,3.3195,3.3188,3.3188,3.3169,3.317,3.3197,3.3202,3.3207,3.321,3.3157,0,0,0,0,0,3.3385,3.3378,3.3348,3.3349,3.3342,3.3314,3.3307,3.329,3.3271,3.3264,3.3243,3.3226,3.3215,3.3208,3.3195,3.3197,3.3191,3.32,3.3205,3.3208,3.3209,3.3211,3.3215,3.3168,3.3168,3.3168,0,0,3.3401,3.3382,3.3378,3.3356,3.3341,3.3334,3.3308,3.3301,3.3296,3.3262,3.3256,3.3241,3.3219,3.3218,3.3216,3.3205,3.3221,3.3211,3.3214,3.3213,3.3213,3.3217,3.3221,3.317,3.3169,3.3169,0,0,3.3427,3.3411,3.3411,3.3397,3.3376,3.3358,3.3358,3.3331,3.332,3.3313,3.3289,3.3282,3.3263,3.3249,3.3239,3.3263,3.3244,3.326,3.3282,3.3283,3.3287,3.329,3.3299,3.3303,3.3261,3.3261,3.3261,0,3.3449,3.3438,3.3412,3.3408,3.3399,3.337,3.337,3.3358,3.3333,3.3328,3.3317,3.3294,3.3277,3.3273,3.3279,3.3272,3.3272,3.3263,3.3289,3.3292,3.3294,3.3303,3.3306,3.3263,3.3263,3.3263,3.3263,0,3.3467,3.3459,3.3462,3.344,3.3432,3.3429,3.3404,3.3399,3.3383,3.3366,3.3361,3.334,3.3324,3.3322,3.3305,3.3315,3.331,3.3294,3.3275,3.3301,3.3309,3.3312,3.3266,3.3266,3.3265,3.3264,0,0,3.3512,3.3479,3.348,3.3471,3.3446,3.344,3.3437,3.3423,3.3419,3.3404,3.3401,3.3386,3.3373,3.3362,3.3344,3.3346,3.3367,3.333,3.3329,3.3338,3.3378,3.339,3.3394,3.3355,3.3356,3.3356,3.338,0,3.3534,3.3527,3.3505,3.3505,3.3499,3.3473,3.347,3.3455,3.344,3.3433,3.3416,3.3407,3.3389,3.3382,3.3383,3.3365,3.3375,3.3362,3.3352,3.3352,3.3358,3.3398,3.341,3.3434,3.3383,3.3384,3.3384,0,3.3558,3.3546,3.3545,3.3523,3.352,3.3518,3.3504,3.3497,3.348,3.3469,3.3459,3.3439,3.3435,3.3418,3.3413,3.3405,3.34,3.339,3.3391,3.3388,3.3369,3.3397,3.3441,3.3445,3.3388,3.3388,3.3387,0,3.3592,3.3576,3.3574,3.3567,3.354,3.354,3.3529,3.3511,3.3505,3.3492,3.3488,3.3475,3.3468,3.3459,3.3437,3.3427,3.3435,3.3415,3.3426,3.3427,3.3428,3.3428,3.3472,3.3425,3.3425,3.3425,3.3425,0,3.3619,3.3619,3.3589,3.3588,3.3589,3.3564,3.3566,3.3552,3.3537,3.3533,3.351,3.3506,3.3478,3.3472,3.3455,3.3454,3.345,3.3442,3.3437,3.3444,3.3445,3.344,3.3438,3.3426,3.3426,3.3425,3.3425,0,3.3656,3.3636,3.3632,3.3609,3.3603,3.3605,3.3584,3.3583,3.3567,3.3563,3.356,3.3536,3.3527,3.3505,3.349,3.3479,3.3483,3.3474,3.3489,3.3486,3.3498,3.3498,3.354,3.3545,3.3495,3.3495,3.3496,0,3.3675,3.3675,3.3652,3.3648,3.3639,3.3633,3.3626,3.3603,3.3597,3.3579,3.358,3.357,3.3561,3.3549,3.353,3.3519,3.351,3.3526,3.3508,3.3516,3.3511,3.3512,3.3512,3.353,3.353,3.3531,3.3531,0,3.371,3.37,3.3692,3.3681,3.3675,3.3665,3.3654,3.3652,3.3626,3.3621,3.3613,3.3606,3.3592,3.3583,3.357,3.3558,3.3541,3.3537,3.3539,3.3546,3.3555,3.3551,3.35,3.3536,3.3536,3.3535,3.3535,3.3535,3.3738,3.3738,3.3723,3.3715,3.3705,3.3695,3.3693,3.3678,3.3671,3.3659,3.3646,3.3639,3.3624,3.3605,3.3595,3.359,3.3581,3.3583,3.3584,3.3585,3.3589,3.3556,3.3588,3.3587,3.3587,3.3587,3.3587,0,3.3773,3.3762,3.3756,3.3741,3.3736,3.3721,3.3709,3.3705,3.37,3.3687,3.368,3.3671,3.3663,3.3644,3.3634,3.3634,3.3626,3.3632,3.3632,3.363,3.3597,3.3597,3.3639,3.3639,3.3639,3.3639,3.3639,3.3639,3.379,3.3789,3.3779,3.3773,3.3762,3.3757,3.3751,3.3742,3.3733,3.3725,3.3718,3.3706,3.3692,3.3681,3.3673,3.3668,3.3665,3.3674,3.3667,3.3637,3.3632,3.3627,3.3626,3.3674,3.3674,3.3699,3.37,3.37]}]]